Weather History for Marion, IN

Change the Weather History Date:

Wednesday, February 13, 2013

  Actual Average (KMIE) Record (KMIE)
Temperature  
Mean Temperature 33 °F 29 °F  
Max Temperature 62 °F 37 °F 66 °F (1984)
Min Temperature 25 °F 21 °F -5 °F (1981)
Degree Days  
Heating Degree Days 32 36  
Month to date heating degree days 483  
Since 1 July heating degree days 3876  
Cooling Degree Days 0 0  
Month to date cooling degree days 0  
Year to date cooling degree days 0  
Moisture  
Dew Point 25 °F    
Average Humidity 79    
Maximum Humidity 88    
Minimum Humidity 64    
Precipitation  
Precipitation 0.00 in 0.09 in 0.43 in (1990)
Month to date precipitation 1.08  
Year to date precipitation 3.31  
Sea Level Pressure  
Sea Level Pressure 29.83 in    
Wind  
Wind Speed 4 mph (WSW)    
Max Wind Speed 10 mph    
Max Gust Speed -    
Visibility 7 miles    
Events Snow    
T = Trace of Precipitation, MM = Missing Value Source: NWS Daily Summary

Daily Weather History Graph

Daily Weather History Graph

Search for Another Location

Airport:

Trip Planner

Search our weather history database for the weather conditions in past years. The results will help you decide how hot, cold, wet, or windy it might be!

Date:

Astronomy

Feb. 13, 2013 Rise Set
Actual Time 7:38 AM EST 6:15 PM EST
Civil Twilight 7:10 AM EST 6:43 PM EST
Nautical Twilight 6:38 AM EST 7:15 PM EST
Astronomical Twilight 6:06 AM EST 7:47 PM EST
Moon 9:06 AM EST (2/13) 10:19 PM EST (2/13)
Length of Visible Light 11h 33m
Length of Day
10h 37m
Waxing Crescent, 13% of the Moon is Illuminated
Feb 13
Waxing Crescent
Feb 17
First Quarter
Feb 25
Full
Mar 4
Last Quarter
Mar 11
New

Hourly Weather History & Observations

Time (EST) Temp. Windchill Dew Point Humidity Pressure Visibility Wind Dir Wind Speed Gust Speed Precip Events Conditions
12:15 AM 28.6 °F 23.5 °F 23.4 °F 81% 29.94 in 7.0 mi NW 4.6 mph - N/A Snow Light Snow
12:35 AM 28.0 °F 24.2 °F 23.0 °F 81% 29.94 in 7.0 mi NW 3.5 mph - N/A Snow Light Snow
12:55 AM 27.9 °F 22.6 °F 23.0 °F 82% 29.93 in 10.0 mi NW 4.6 mph - N/A   Mostly Cloudy
1:15 AM 27.5 °F - 23.0 °F 83% 29.93 in 10.0 mi Calm Calm - N/A Snow Light Snow
1:35 AM 27.3 °F 20.9 °F 22.6 °F 83% 29.93 in 7.0 mi North 5.8 mph - N/A   Clear
1:55 AM 27.1 °F 23.2 °F 22.8 °F 84% 29.92 in 7.0 mi North 3.5 mph - N/A   Scattered Clouds
2:15 AM 27.3 °F 22.0 °F 23.0 °F 84% 29.92 in 10.0 mi North 4.6 mph - N/A   Overcast
2:35 AM 27.5 °F 20.2 °F 23.0 °F 83% 29.91 in 7.0 mi North 6.9 mph - N/A   Scattered Clouds
2:55 AM 27.5 °F 21.1 °F 23.0 °F 83% 29.91 in 10.0 mi North 5.8 mph - N/A   Clear
3:15 AM 27.5 °F 20.2 °F 23.2 °F 84% 29.90 in 5.0 mi North 6.9 mph - N/A Snow Light Snow
3:35 AM 27.5 °F - 23.0 °F 83% 29.90 in 7.0 mi Calm Calm - N/A   Scattered Clouds
3:55 AM 27.5 °F 23.6 °F 22.8 °F 83% 29.89 in 10.0 mi North 3.5 mph - N/A   Clear
4:15 AM 27.5 °F 21.1 °F 22.8 °F 83% 29.88 in 7.0 mi NNE 5.8 mph - N/A   Clear
4:35 AM 27.5 °F 23.6 °F 22.8 °F 83% 29.88 in 7.0 mi North 3.5 mph - N/A   Clear
4:55 AM 27.5 °F 23.6 °F 22.3 °F 81% 29.88 in 10.0 mi NNE 3.5 mph - N/A   Clear
5:15 AM 27.5 °F 23.6 °F 22.5 °F 81% 29.87 in 10.0 mi NNE 3.5 mph - N/A   Clear
5:35 AM 27.3 °F 22.0 °F 22.1 °F 81% 29.86 in 10.0 mi NE 4.6 mph - N/A   Clear
5:55 AM 27.1 °F 23.2 °F 22.3 °F 82% 29.85 in 7.0 mi NE 3.5 mph - N/A   Clear
6:15 AM 26.8 °F 22.8 °F 22.3 °F 83% 29.84 in 10.0 mi ENE 3.5 mph - N/A   Clear
6:35 AM 26.6 °F 22.6 °F 22.5 °F 84% 29.84 in 7.0 mi NE 3.5 mph - N/A   Clear
6:55 AM 26.4 °F 19.8 °F 22.5 °F 85% 29.83 in 10.0 mi NE 5.8 mph - N/A   Clear
7:15 AM 25.9 °F 21.7 °F 22.1 °F 86% 29.83 in 7.0 mi NE 3.5 mph - N/A   Clear
7:35 AM 25.5 °F 21.3 °F 22.3 °F 88% 29.82 in 5.0 mi NE 3.5 mph - N/A   Clear
7:55 AM 25.7 °F 21.5 °F 22.6 °F 88% 29.82 in 5.0 mi ENE 3.5 mph - N/A   Clear
8:15 AM 26.1 °F - 22.3 °F 86% 29.82 in 7.0 mi Calm Calm - N/A   Clear
8:35 AM 26.2 °F 22.1 °F 22.5 °F 86% 29.84 in 7.0 mi SE 3.5 mph - N/A   Clear
8:55 AM 26.6 °F 22.6 °F 22.6 °F 85% 29.84 in 7.0 mi SE 3.5 mph - N/A   Clear
9:15 AM 26.6 °F - 22.5 °F 84% 29.84 in 2.5 mi Calm Calm - N/A   Haze
9:35 AM 27.0 °F - 22.8 °F 84% 29.85 in 7.0 mi Calm Calm - N/A   Clear
9:55 AM 27.5 °F - 23.0 °F 83% 29.85 in 7.0 mi Calm Calm - N/A   Clear
10:15 AM 27.7 °F - 23.0 °F 83% 29.85 in 7.0 mi Calm Calm - N/A   Clear
10:35 AM 28.0 °F - 23.0 °F 81% 29.85 in 5.0 mi Calm Calm - N/A   Haze
10:55 AM 28.4 °F 24.6 °F 23.4 °F 81% 29.84 in 7.0 mi West 3.5 mph - N/A   Clear
11:15 AM 28.9 °F 25.2 °F 23.4 °F 80% 29.84 in 5.0 mi West 3.5 mph - N/A   Haze
11:35 AM 29.7 °F - 23.7 °F 79% 29.84 in 7.0 mi Calm Calm - N/A   Clear
11:55 AM 30.4 °F - 24.1 °F 77% 29.84 in 7.0 mi Calm Calm - N/A   Clear
12:15 PM 31.5 °F - 24.8 °F 76% 29.83 in 7.0 mi Calm Calm - N/A   Clear
12:35 PM 32.0 °F - 25.3 °F 76% 29.82 in 7.0 mi Calm Calm - N/A   Clear
12:55 PM 32.2 °F 27.7 °F 25.3 °F 76% 29.81 in 10.0 mi West 4.6 mph - N/A   Clear
1:15 PM 33.3 °F 28.9 °F 26.1 °F 75% 29.81 in 7.0 mi West 4.6 mph - N/A   Clear
1:35 PM 33.8 °F 30.8 °F 26.4 °F 74% 29.79 in 7.0 mi WSW 3.5 mph - N/A   Clear
1:55 PM 35.2 °F 31.2 °F 27.1 °F 72% 29.79 in 10.0 mi West 4.6 mph - N/A   Clear
2:15 PM 35.8 °F 31.9 °F 26.8 °F 70% 29.78 in 7.0 mi WSW 4.6 mph - N/A   Clear
2:35 PM 36.1 °F 31.4 °F 27.0 °F 69% 29.77 in 7.0 mi WSW 5.8 mph - N/A   Clear
2:55 PM 37.4 °F 32.8 °F 27.9 °F 68% 29.76 in 10.0 mi SW 5.8 mph - N/A   Clear
3:15 PM 38.1 °F 32.9 °F 28.4 °F 68% 29.76 in 10.0 mi WSW 6.9 mph - N/A   Clear
3:35 PM 38.7 °F 32.4 °F 28.9 °F 68% 29.76 in 10.0 mi West 9.2 mph - N/A   Clear
3:55 PM 39.2 °F 33.6 °F 28.8 °F 66% 29.76 in 10.0 mi SW 8.1 mph - N/A   Clear
4:15 PM 39.9 °F 33.9 °F 29.5 °F 66% 29.76 in 10.0 mi SW 9.2 mph - N/A   Clear
4:35 PM 40.3 °F 35.5 °F 29.3 °F 65% 29.76 in 10.0 mi SW 6.9 mph - N/A   Clear
4:55 PM 40.8 °F 34.5 °F 29.7 °F 64% 29.76 in 10.0 mi SW 10.4 mph - N/A   Clear
5:15 PM 41.0 °F 35.8 °F 29.7 °F 64% 29.76 in 10.0 mi SW 8.1 mph - N/A   Clear
5:35 PM 40.6 °F 34.8 °F 29.8 °F 65% 29.77 in 10.0 mi SW 9.2 mph - N/A   Clear
5:55 PM 39.6 °F 34.7 °F 30.0 °F 69% 29.77 in 5.0 mi SW 6.9 mph - N/A   Unknown
6:15 PM 37.2 °F 31.9 °F 30.0 °F 75% 29.78 in 4.0 mi SSW 6.9 mph - N/A   Haze
6:35 PM 35.6 °F 29.9 °F 29.7 °F 79% 29.79 in 7.0 mi SSW 6.9 mph - N/A   Clear
6:55 PM 34.5 °F 28.6 °F 29.3 °F 81% 29.79 in 5.0 mi SSW 6.9 mph - N/A Snow Light Snow
7:15 PM 34.0 °F 28.0 °F 28.9 °F 82% 29.79 in 7.0 mi SSW 6.9 mph - N/A   Clear
7:35 PM 33.4 °F 27.3 °F 28.4 °F 82% 29.80 in 4.0 mi SSW 6.9 mph - N/A   Haze
7:55 PM 33.1 °F 27.7 °F 28.0 °F 82% 29.80 in 7.0 mi SSW 5.8 mph - N/A   Clear
8:15 PM 33.1 °F 27.7 °F 27.9 °F 81% 29.80 in 5.0 mi SSW 5.8 mph - N/A   Haze
8:35 PM 33.4 °F 27.3 °F 28.0 °F 81% 29.80 in 4.0 mi SSW 6.9 mph - N/A Snow Light Snow
8:55 PM 33.8 °F 27.7 °F 28.2 °F 80% 29.80 in 10.0 mi SSW 6.9 mph - N/A   Mostly Cloudy
9:15 PM 34.2 °F 27.5 °F 28.4 °F 79% 29.80 in 4.0 mi SSW 8.1 mph - N/A Snow Light Snow
9:35 PM 34.5 °F 27.3 °F 28.4 °F 78% 29.81 in 7.0 mi SSW 9.2 mph - N/A   Overcast
9:55 PM 35.4 °F 28.4 °F 28.0 °F 75% 29.81 in 3.0 mi SSW 9.2 mph - N/A Snow Light Snow
10:15 PM 34.7 °F 27.5 °F 27.7 °F 76% 29.81 in 4.0 mi SW 9.2 mph - N/A   Haze
10:35 PM 34.0 °F 26.6 °F 27.3 °F 77% 29.81 in 10.0 mi SSW 9.2 mph - N/A   Mostly Cloudy
10:55 PM 33.8 °F 26.4 °F 27.3 °F 77% 29.81 in 5.0 mi SSW 9.2 mph - N/A Snow Light Snow
11:15 PM 33.8 °F 27.0 °F 27.1 °F 77% 29.81 in 4.0 mi SSW 8.1 mph - N/A Snow Light Snow
11:35 PM 33.3 °F 26.4 °F 27.1 °F 78% 29.81 in 4.0 mi SSW 8.1 mph - N/A Snow Light Snow
11:55 PM 33.3 °F 25.7 °F 27.1 °F 78% 29.82 in 7.0 mi SSW 9.2 mph - N/A   Clear